TimePST,TemperatureF,Dew PointF,Humidity,Sea Level PressureIn,VisibilityMPH,Wind Direction,Wind SpeedMPH,Gust SpeedMPH,PrecipitationIn,Events,Conditions,WindDirDegrees,DateUTC
12:53 AM,28.0,23.0,81,30.19,10.0,NE,3.5,-,N/A,,Clear,40,2012-12-19 08:53:00
1:53 AM,28.0,24.1,85,30.21,10.0,Calm,Calm,-,N/A,,Clear,0,2012-12-19 09:53:00
2:53 AM,27.0,23.0,85,30.22,10.0,Calm,Calm,-,N/A,,Clear,0,2012-12-19 10:53:00
3:53 AM,26.1,23.0,88,30.22,10.0,Calm,Calm,-,N/A,,Clear,0,2012-12-19 11:53:00
4:53 AM,26.1,21.9,84,30.22,10.0,Calm,Calm,-,N/A,,Clear,0,2012-12-19 12:53:00
5:53 AM,28.0,23.0,81,30.24,10.0,North,5.8,-,N/A,,Clear,350,2012-12-19 13:53:00
6:53 AM,26.1,23.0,88,30.25,10.0,Calm,Calm,-,N/A,,Clear,0,2012-12-19 14:53:00
7:53 AM,27.0,21.9,81,30.27,10.0,Calm,Calm,-,N/A,,Clear,0,2012-12-19 15:53:00
8:53 AM,30.0,25.0,82,30.28,10.0,Calm,Calm,-,N/A,,Clear,0,2012-12-19 16:53:00
9:53 AM,35.1,28.0,76,30.30,10.0,Calm,Calm,-,N/A,,Clear,0,2012-12-19 17:53:00
10:53 AM,41.0,25.0,53,30.30,10.0,Calm,Calm,-,N/A,,Clear,0,2012-12-19 18:53:00
11:53 AM,41.0,28.0,60,30.29,10.0,SE,4.6,-,N/A,,Mostly Cloudy,140,2012-12-19 19:53:00
12:53 PM,42.1,25.0,51,30.26,10.0,Calm,Calm,-,N/A,,Overcast,0,2012-12-19 20:53:00
1:53 PM,43.0,23.0,45,30.25,10.0,South,3.5,-,N/A,,Mostly Cloudy,190,2012-12-19 21:53:00
2:53 PM,43.0,24.1,47,30.24,10.0,Calm,Calm,-,N/A,,Overcast,0,2012-12-19 22:53:00
3:53 PM,43.0,25.0,49,30.24,10.0,Calm,Calm,-,N/A,,Overcast,0,2012-12-19 23:53:00
4:53 PM,41.0,26.1,55,30.24,10.0,East,4.6,-,N/A,,Overcast,90,2012-12-20 00:53:00
5:53 PM,41.0,25.0,53,30.23,10.0,Calm,Calm,-,N/A,,Overcast,0,2012-12-20 01:53:00
6:53 PM,39.9,28.0,63,30.22,10.0,Calm,Calm,-,N/A,,Overcast,0,2012-12-20 02:53:00
7:53 PM,39.9,26.1,58,30.22,10.0,Calm,Calm,-,N/A,,Overcast,0,2012-12-20 03:53:00
8:53 PM,39.9,27.0,60,30.23,10.0,Calm,Calm,-,N/A,,Overcast,0,2012-12-20 04:53:00
9:53 PM,37.9,28.9,70,30.24,10.0,NNE,3.5,-,N/A,,Overcast,20,2012-12-20 05:53:00
10:53 PM,37.9,28.9,70,30.23,10.0,Calm,Calm,-,N/A,,Overcast,0,2012-12-20 06:53:00
11:53 PM,37.9,28.9,70,30.22,10.0,NW,3.5,-,N/A,,Overcast,310,2012-12-20 07:53:00